Lapse_Rate
2.2 6.7 9.6 9.3 6.6 6.5 6.5 6.5 6.5 6.5 6.5 7.5 7.7 7.1 6.7 7.3 6.6 6.5 8.9 8.8 6.7 7.8 3.3 3.1 1.8 2.2 2.4 2.7 2.5 2.4 2.4 2.1 2.7 2.4 2.4 2.0 2.1 2.1 2.1 2.4 3.0 3.6 3.8 4.1 4.4 4.3 4.0 3.9 3.3
7.6 8.2 9.5 8.0 6.5 6.5 6.5 6.5 6.5 6.5 7.1 7.7 7.8 7.6 6.9 6.5 8.2 8.5 8.9 8.2 8.2 8.2 3.7 5.6 2.0 2.5 3.0 2.9 2.6 2.5 2.5 2.3 2.8 2.5 2.6 2.2 2.3 2.3 2.2 2.3 3.0 3.2 3.4 3.5 4.1 4.0 3.7 3.3 3.0
8.5 9.1 8.0 6.5 6.5 6.5 6.5 6.5 6.5 6.9 7.6 7.6 7.2 8.0 7.5 7.0 8.5 8.8 9.5 7.4 8.1 5.9 4.6 7.7 2.5 2.8 3.2 3.2 2.9 2.7 2.5 2.4 2.8 2.7 2.8 2.3 2.5 2.5 2.3 2.2 2.5 2.6 3.0 3.3 4.0 3.7 3.1 2.5 2.7
9.5 9.1 8.2 6.5 6.5 6.5 6.5 6.5 6.7 6.7 7.4 7.8 7.7 6.5 8.1 8.9 8.7 9.4 9.1 7.1 8.6 4.9 5.3 4.1 2.4 2.8 3.2 3.0 3.0 2.9 2.5 2.4 2.7 2.8 2.9 2.6 2.8 2.7 2.4 2.2 2.4 2.6 3.0 3.3 3.6 3.0 2.4 1.9 2.3
9.4 8.2 6.5 6.5 6.5 6.5 6.5 7.1 7.3 6.5 6.9 7.3 7.6 6.7 7.3 8.8 9.3 9.4 8.5 7.1 9.1 6.0 4.6 4.6 2.8 3.0 3.4 3.4 3.1 2.8 2.6 2.7 2.8 2.8 2.9 2.8 3.0 2.7 2.3 1.9 2.3 2.7 3.1 3.1 3.0 2.2 1.8 2.0 2.1
7.8 7.8 6.5 6.5 6.5 6.5 6.5 7.4 7.3 6.9 7.2 7.3 7.2 7.2 7.5 9.1 9.2 9.3 7.6 8.7 8.8 5.1 4.4 5.4 3.5 3.4 3.6 3.6 3.2 2.4 2.2 2.4 2.9 2.8 2.9 3.1 3.0 2.5 2.0 1.9 2.3 2.6 2.8 2.7 2.4 1.7 1.7 1.9 2.1
7.0 6.5 6.5 6.5 6.5 6.5 6.5 7.5 6.8 6.8 6.9 7.0 8.0 6.5 7.8 8.7 9.3 9.4 9.0 7.7 7.1 5.4 4.2 4.1 6.4 5.3 3.4 3.2 2.8 2.3 2.1 2.3 2.7 2.7 2.9 3.1 2.7 2.0 1.9 2.1 2.3 2.1 2.1 2.0 2.0 1.6 1.8 1.9 2.0
8.0 6.4 6.5 6.5 6.5 6.5 6.8 7.2 7.6 7.2 6.8 8.4 8.5 6.6 6.9 8.6 9.4 9.3 9.0 7.1 7.6 4.4 4.4 3.9 5.6 6.6 6.6 5.1 2.5 2.2 2.2 2.1 2.4 2.4 2.6 2.7 2.3 2.2 2.1 2.1 2.0 1.8 1.7 1.2 1.7 1.5 1.9 1.9 1.8
8.5 6.5 6.5 6.5 6.5 6.5 7.2 6.6 7.8 8.3 7.8 8.0 8.4 8.3 8.8 9.2 9.4 9.2 8.9 4.6 5.4 5.0 4.3 4.5 4.3 5.5 8.1 8.8 4.9 2.8 2.6 2.5 2.4 2.5 2.3 2.2 5.4 4.4 2.9 4.7 1.8 1.8 1.6 1.2 1.2 1.5 1.7 2.0 2.0
7.0 6.5 6.5 6.5 6.5 6.5 7.0 7.1 7.4 7.3 7.3 7.5 7.9 8.7 9.0 9.1 9.1 8.9 8.9 8.7 5.2 5.1 4.5 3.9 4.5 5.6 5.4 7.4 7.7 6.3 5.9 5.6 5.7 5.7 3.9 5.6 7.3 6.5 6.1 4.1 2.1 2.0 1.7 1.2 1.3 1.0 1.2 3.8 5.2
7.0 6.5 6.5 6.9 7.4 7.6 7.1 7.1 7.9 7.0 6.5 7.5 7.5 8.1 8.6 8.8 8.9 8.9 9.0 9.1 9.0 8.8 6.6 4.5 4.0 5.9 5.3 5.7 6.3 7.3 8.9 8.7 8.4 7.1 5.3 7.3 8.7 9.0 9.2 4.7 4.0 3.8 2.8 3.6 3.1 2.6 5.3 8.9 8.5
6.5 7.0 7.2 7.3 7.7 7.5 6.6 7.8 7.0 7.5 7.3 8.4 8.5 8.7 8.7 8.7 8.8 8.9 9.0 9.1 9.2 9.2 9.1 5.8 4.5 4.9 6.1 5.3 5.2 6.3 7.8 8.2 9.2 6.9 5.9 9.3 9.0 9.1 9.4 6.8 6.2 5.4 6.0 6.3 6.1 6.3 9.3 9.0 9.1
6.5 6.5 7.5 7.7 7.7 7.7 7.7 6.9 6.9 7.2 8.3 8.8 8.7 8.7 8.6 8.8 8.9 9.1 9.3 9.4 9.4 9.2 9.3 8.5 4.9 4.5 6.0 6.0 5.1 5.6 5.4 5.7 5.5 4.9 5.2 8.1 9.4 8.7 9.0 8.0 6.5 6.3 8.7 7.9 8.8 9.5 9.5 9.0 7.9
7.2 7.2 7.1 7.6 7.5 7.6 6.8 6.8 7.4 7.6 8.4 8.4 8.3 8.5 8.7 8.6 8.8 9.1 9.1 9.1 9.1 9.2 9.3 9.0 6.7 4.3 5.9 4.5 6.3 5.8 6.2 5.7 5.1 4.3 4.9 7.1 8.2 8.4 7.6 7.5 6.8 6.3 8.8 9.3 9.4 9.7 9.6 9.5 9.2
7.2 6.5 6.5 6.7 7.1 6.6 7.6 6.5 6.5 7.8 8.2 7.9 8.1 8.4 8.5 8.6 9.0 8.9 9.1 9.0 9.2 9.5 9.5 9.0 5.1 5.4 5.6 6.7 8.3 8.0 6.6 6.8 5.7 4.8 5.5 6.4 7.1 5.7 6.4 6.4 6.5 5.2 7.6 8.3 9.3 9.0 9.5 9.9 9.7
6.5 6.5 6.5 6.5 6.5 6.9 6.9 6.5 6.5 7.8 7.6 7.5 7.8 8.1 8.2 8.4 8.7 9.0 9.1 9.3 9.6 9.5 9.3 9.4 9.0 7.0 6.6 8.1 9.5 9.4 8.7 6.5 6.5 5.3 6.2 6.1 6.5 5.8 6.6 7.2 6.4 6.0 7.0 7.5 9.7 9.6 9.7 9.8 9.8
6.5 6.5 6.5 6.5 6.5 6.5 6.5 6.5 6.5 7.5 7.4 7.2 7.6 7.9 8.1 8.2 8.6 8.8 9.1 9.3 9.5 9.6 9.3 9.3 9.3 8.0 6.9 8.8 9.3 9.4 8.7 6.9 6.4 5.5 6.2 5.8 6.2 6.4 7.2 7.7 7.4 5.6 6.2 7.9 9.4 9.7 9.5 9.5 9.7
6.5 6.5 6.5 6.5 6.5 6.5 6.5 6.5 6.5 7.3 7.3 7.1 7.5 7.8 8.0 8.2 8.4 8.8 9.0 9.2 9.6 9.6 9.4 9.4 9.4 9.2 8.5 9.1 8.7 8.4 8.2 6.2 5.9 5.8 6.0 5.5 5.6 6.3 7.1 8.9 7.6 5.4 6.5 7.8 9.0 9.1 9.7 9.6 9.7
6.5 6.5 6.5 6.5 6.5 6.5 6.5 6.5 6.5 6.6 7.0 6.7 7.3 7.6 7.8 8.0 8.7 8.9 9.0 9.2 9.2 9.2 9.3 9.3 9.4 9.3 9.6 8.2 7.1 6.8 6.4 5.8 5.6 5.7 5.8 5.6 5.7 5.5 5.4 6.0 5.3 5.5 6.7 6.9 7.0 8.7 9.3 9.5 9.7
6.5 6.5 6.5 6.5 6.5 6.5 6.5 6.5 6.5 6.5 6.5 7.0 7.2 7.4 7.7 8.1 8.3 8.4 8.5 8.8 8.8 8.9 9.0 9.2 9.3 9.3 9.5 8.5 7.5 7.1 6.2 6.5 6.1 5.8 5.3 5.7 5.3 5.2 5.7 5.0 4.7 4.5 7.1 6.3 6.6 7.8 9.0 9.4 10.0
6.5 6.5 6.5 6.5 6.5 6.5 6.5 6.5 6.5 6.5 6.6 7.1 7.5 7.8 8.0 8.0 8.0 8.3 8.4 8.6 8.7 8.8 8.9 9.1 9.2 9.4 9.3 8.2 8.2 7.5 6.8 6.5 5.5 5.3 4.8 4.9 5.1 4.3 5.0 5.0 4.8 4.3 6.1 5.9 5.3 6.1 6.7 8.3 9.4
6.5 6.5 6.5 6.5 6.5 6.5 6.5 6.5 6.5 6.5 6.5 6.5 6.6 7.3 7.6 7.8 7.9 8.1 8.4 8.5 8.6 8.7 7.4 8.7 9.3 9.4 9.4 8.3 7.1 6.8 6.3 5.9 5.6 5.8 5.6 5.3 5.2 4.6 4.7 4.8 4.3 4.3 5.0 6.1 5.5 6.2 6.2 6.7 6.6
6.5 6.5 6.5 6.5 6.5 6.5 6.5 6.5 6.5 6.5 6.5 6.5 6.5 7.0 7.5 7.8 8.0 8.2 8.4 8.6 8.7 8.2 7.3 6.6 8.9 9.3 9.3 8.5 7.6 7.0 6.8 7.4 7.1 6.2 5.9 4.9 4.2 4.7 4.7 4.9 4.5 4.4 4.4 4.7 5.7 5.9 5.7 6.4 5.8
6.5 6.5 6.5 6.5 6.5 6.5 6.5 6.5 6.5 6.5 6.5 6.5 6.5 7.1 7.5 7.9 8.1 8.3 8.5 8.7 8.8 8.9 7.7 6.4 6.6 9.1 9.1 8.2 7.5 7.3 6.7 7.1 7.5 6.8 6.0 5.6 4.4 4.4 4.5 4.8 4.4 4.6 4.4 4.3 5.3 5.5 5.4 6.6 6.1
6.5 6.5 6.5 6.5 6.5 6.5 6.5 6.5 6.5 6.5 6.5 6.5 6.5 7.0 7.6 7.9 8.1 8.2 8.2 8.4 8.5 8.6 8.6 8.6 8.5 8.4 8.8 7.8 8.6 7.5 7.1 7.0 7.2 7.3 6.4 6.6 5.5 4.5 4.5 4.9 4.3 4.3 4.7 4.7 4.6 5.9 5.8 6.4 6.3
6.5 6.5 6.5 6.5 6.5 6.5 6.5 6.5 6.5 6.5 6.5 7.1 7.3 7.4 7.7 7.8 8.1 8.2 8.3 8.4 8.6 8.5 8.5 8.7 8.9 8.8 9.0 8.8 7.8 8.6 7.6 7.9 8.3 8.0 6.9 6.2 5.9 4.7 4.6 4.3 5.1 4.8 4.6 4.6 4.5 5.7 5.7 5.6 6.8
6.5 6.5 6.5 6.5 6.5 6.5 6.5 6.5 6.5 6.5 6.5 6.5 6.6 7.1 7.3 7.7 7.9 8.1 8.4 8.5 8.6 8.7 8.5 7.2 7.6 8.9 9.0 9.0 9.0 8.2 8.9 8.8 8.3 7.9 7.7 7.1 6.4 5.6 4.1 4.0 4.2 4.5 3.9 4.2 4.1 3.7 3.8 3.8 5.4
6.5 6.5 6.5 6.5 6.5 6.5 6.5 6.5 6.5 6.5 6.5 6.5 6.5 6.6 7.2 7.7 7.9 8.2 8.4 8.5 8.7 8.7 8.6 7.3 7.5 8.1 8.0 8.9 8.9 8.1 9.0 8.8 8.7 8.2 7.6 7.4 6.7 6.1 4.3 4.1 3.8 4.1 4.1 3.7 3.4 3.3 3.6 4.1 4.4
6.5 6.5 6.5 6.5 6.5 6.5 6.5 6.5 6.5 6.5 6.5 6.5 6.5 6.9 7.2 7.6 7.9 8.2 8.4 8.6 8.7 8.8 8.8 8.6 7.4 7.0 7.6 8.6 8.9 7.9 7.7 8.8 8.5 7.9 8.1 7.2 6.7 5.8 4.7 4.1 3.7 3.8 3.9 3.6 3.2 2.7 2.5 2.0 2.7
6.5 6.5 6.5 6.5 6.5 6.5 6.5 6.5 6.5 6.5 6.5 6.5 6.6 7.1 7.4 6.7 7.9 8.3 8.4 8.5 8.6 8.7 8.6 8.7 8.6 7.6 7.1 6.9 6.7 6.5 6.9 7.5 8.3 8.5 6.6 6.7 6.7 6.5 5.4 4.0 3.8 3.7 3.5 3.6 3.0 2.5 2.8 2.3 2.0
Wind_Speed
11 9 5 6 7 6 11 3 3 2 2 1 2 9 15 13 12 12 2 5 3 11 17 23 17 20 22 24 27 29 30 31 29 29 29 29 27 26 25 24 23 21 20 21 21 21 21 20 19
11 8 5 3 8 10 9 4 5 3 2 3 13 11 10 9 6 11 11 6 3 11 16 22 16 20 22 22 26 29 31 32 30 29 29 29 28 26 26 24 23 23 21 21 20 21 21 20 18
7 6 5 4 10 12 8 3 1 2 2 12 6 7 5 3 11 9 8 2 6 10 15 20 16 20 23 25 26 28 30 31 31 30 30 30 28 27 25 24 22 23 22 22 21 21 21 19 18
6 5 4 9 19 14 13 5 6 11 6 3 8 13 4 1 7 11 14 3 8 11 14 19 15 20 24 24 26 29 30 31 30 30 29 29 28 26 25 24 23 23 23 23 22 22 21 19 19
5 4 11 14 20 16 10 11 10 12 11 6 7 12 7 2 5 7 4 3 9 12 11 16 13 18 23 25 26 28 30 32 32 30 28 27 27 25 24 25 24 23 22 22 23 23 21 19 19
7 5 11 15 17 15 9 7 12 13 6 4 9 12 9 3 8 9 2 5 8 11 9 15 15 13 19 25 24 26 29 30 31 28 27 26 25 24 24 24 23 24 22 22 22 22 21 20 19
12 10 17 19 18 20 16 2 9 11 8 8 8 12 5 8 10 7 2 5 9 11 11 12 20 18 13 18 21 24 26 29 28 28 27 25 24 24 23 23 23 24 25 22 21 22 21 20 20
8 9 19 16 16 19 9 5 6 8 11 6 8 8 7 9 12 5 1 4 8 11 13 13 16 20 21 19 17 21 24 26 28 27 25 22 21 21 21 21 24 26 25 26 25 25 22 21 21
7 11 15 20 20 19 10 11 13 12 17 18 19 19 18 15 9 7 3 6 8 9 13 13 12 14 21 22 19 17 19 22 25 26 24 24 21 21 21 20 23 25 26 27 28 26 24 22 21
13 14 21 18 18 18 21 21 21 20 22 24 21 20 19 14 13 13 11 9 12 13 15 13 12 12 13 18 22 23 22 22 23 24 25 23 20 21 22 19 21 23 25 27 27 28 27 24 19
11 18 20 21 20 23 25 27 23 24 29 25 26 22 20 18 16 16 15 13 16 16 14 16 15 13 13 10 14 16 19 20 21 22 25 23 20 19 17 17 20 21 24 23 25 25 24 20 19
21 21 22 23 25 26 28 27 29 25 35 27 27 26 23 22 21 19 17 14 15 18 19 18 18 15 16 10 9 11 11 16 13 22 27 19 14 17 16 16 19 19 22 21 22 21 20 19 18
23 26 26 24 22 29 26 28 30 37 28 28 29 27 27 24 23 20 19 17 15 18 19 19 19 16 17 14 10 11 12 8 15 18 23 20 15 13 17 17 18 18 21 22 19 19 17 17 17
23 26 27 26 30 30 30 29 26 39 23 28 25 26 24 23 23 21 21 21 19 18 19 19 21 21 20 15 19 12 11 14 15 17 20 24 19 14 13 12 13 15 20 22 20 16 14 13 16
20 24 22 23 27 26 26 32 34 37 27 24 22 21 20 20 22 23 23 22 22 19 20 21 22 22 23 24 18 15 13 14 12 14 23 25 24 21 18 13 13 14 20 21 19 18 19 12 15
11 13 17 15 20 22 16 26 21 20 15 18 18 16 17 17 19 20 21 23 23 23 22 20 18 22 23 21 17 16 14 13 12 17 23 24 23 25 18 14 13 19 19 19 13 14 13 12 12
9 21 27 26 17 22 24 28 16 12 11 16 16 16 16 16 17 18 19 21 23 23 23 22 22 23 24 22 17 18 16 13 11 16 17 25 23 23 18 13 14 21 15 13 13 13 14 13 13
22 21 20 24 11 15 26 31 24 26 25 21 22 22 22 20 20 20 20 20 20 21 22 24 20 23 23 17 15 12 12 11 11 13 13 24 22 25 18 14 14 20 13 14 14 16 14 13 13
27 32 34 23 24 25 26 38 27 26 27 25 23 22 23 24 23 19 19 19 19 20 21 23 22 23 16 14 13 13 13 13 12 13 19 20 22 24 16 12 13 13 15 16 16 14 17 14 14
23 26 28 27 21 21 27 43 28 25 31 31 27 24 24 23 22 19 16 16 17 18 20 22 23 23 20 14 14 13 14 13 13 12 14 17 20 22 18 16 15 16 14 16 17 17 14 13 15
25 29 26 28 23 25 24 43 25 28 24 21 22 24 24 22 19 15 12 10 8 12 16 19 22 22 21 19 13 11 11 10 9 11 12 16 20 19 19 19 16 16 13 15 18 18 21 15 15
29 27 30 27 18 13 14 22 21 21 21 15 15 13 16 12 2 6 9 8 6 4 5 12 18 20 20 19 15 19 12 11 11 11 12 14 20 20 22 21 19 18 13 16 18 16 17 15 18
36 22 28 25 19 20 27 16 11 13 8 3 7 7 6 6 7 7 7 7 6 4 3 3 11 17 19 19 17 15 17 13 12 12 15 16 15 19 21 21 20 19 15 17 20 20 21 16 16
34 29 29 22 16 13 34 22 17 19 21 11 12 10 9 10 8 6 4 3 6 6 4 4 5 12 15 13 19 19 19 17 14 14 12 12 12 13 20 21 19 19 18 18 18 21 23 19 17
24 16 10 11 12 16 25 16 29 2 8 6 16 13 9 7 8 7 4 3 4 5 5 3 3 7 11 13 20 20 20 19 19 16 14 16 12 12 17 21 20 18 21 20 19 21 22 22 19
17 23 9 7 7 11 22 10 15 8 15 15 13 11 10 8 8 8 5 3 4 4 4 4 3 2 5 11 15 19 20 14 16 17 12 12 13 14 18 18 20 20 19 19 19 16 17 20 18
32 16 27 18 21 9 3 6 12 13 17 16 12 10 10 9 8 7 6 6 5 5 5 4 4 4 3 5 8 14 18 22 19 21 17 14 15 13 17 20 21 21 20 19 18 15 19 19 20
5 4 12 6 8 11 10 23 7 14 16 13 12 11 11 10 9 8 7 8 7 7 6 6 6 5 6 7 6 8 16 18 20 18 19 18 15 16 17 20 20 20 21 21 20 17 16 18 15
2 0 2 2 3 7 10 1 9 13 11 11 10 10 10 11 12 11 10 9 9 9 9 8 7 7 7 7 7 8 10 15 15 17 18 18 16 16 16 20 20 20 20 19 20 20 20 21 19
2 3 4 4 5 2 0 3 5 7 6 10 10 9 12 15 13 11 9 8 9 10 10 10 9 8 8 9 9 8 10 10 13 15 14 16 18 17 17 17 19 22 21 21 21 22 21 22 23
Wind_Direction
156 185 236 234 246 239 261 252 342 249 234 127 317 283 297 295 278 286 2 355 303 161 164 162 151 145 147 151 152 152 151 149 154 152 152 149 148 146 143 142 139 141 139 139 135 129 126 126 119
168 171 220 266 255 248 277 112 216 22 77 267 294 274 270 283 316 290 319 15 216 157 164 167 153 148 153 152 153 153 153 150 155 154 153 151 150 149 146 144 147 145 143 141 140 132 130 128 119
182 214 240 243 256 254 287 144 23 3 227 297 273 257 287 279 346 308 359 341 161 149 172 163 155 149 156 160 156 155 153 151 153 154 156 154 152 151 148 143 144 142 143 143 143 137 134 128 118
181 194 219 239 255 252 267 276 275 298 302 284 276 278 200 319 344 342 319 206 173 152 181 137 157 152 158 159 160 157 154 150 152 156 158 155 153 152 147 143 144 145 146 145 144 139 135 125 120
201 241 249 240 260 272 272 273 288 286 300 279 272 268 259 285 339 353 328 197 176 148 172 167 167 157 158 160 160 158 156 155 156 154 155 154 153 152 148 145 146 146 146 144 143 139 133 127 122
209 274 244 254 258 263 247 265 280 285 306 234 255 277 281 116 353 0 326 190 167 156 168 182 168 162 158 161 159 155 156 156 156 152 154 156 155 151 149 147 147 145 144 141 144 138 134 129 123
249 244 263 271 273 277 279 350 270 286 280 245 297 274 273 234 14 347 332 191 177 169 167 171 184 177 161 157 158 156 155 153 152 151 154 158 153 152 150 150 146 142 140 140 145 140 135 130 125
247 263 264 255 265 271 329 285 276 286 281 311 262 258 261 317 342 331 289 196 197 183 176 171 181 187 184 174 159 156 156 153 151 150 151 150 147 150 151 149 147 145 144 143 144 140 136 132 126
231 248 252 257 259 272 269 273 277 288 273 274 270 263 279 299 302 277 213 211 199 196 183 180 176 185 189 186 174 160 159 153 150 149 145 149 166 167 160 166 150 148 147 146 143 139 135 129 127
220 240 255 269 276 280 291 289 286 283 277 269 268 259 263 271 267 268 264 224 207 197 191 183 177 180 182 186 183 182 176 174 172 170 166 168 170 180 180 152 150 149 150 146 143 139 136 147 148
229 249 272 271 274 282 284 278 280 281 270 265 268 273 273 269 258 261 266 240 210 199 195 190 181 183 179 173 183 187 187 186 186 175 178 175 171 175 178 159 159 157 156 151 149 146 159 160 161
254 259 259 269 278 280 274 282 280 271 265 275 274 273 270 264 257 254 257 242 216 200 200 192 187 186 184 170 176 186 186 185 188 179 183 174 178 174 177 173 172 169 172 161 164 169 173 166 166
262 268 272 273 274 268 277 275 278 270 269 275 270 266 259 254 253 252 248 239 214 206 199 192 189 189 188 183 179 179 185 187 180 174 186 173 183 180 179 175 175 180 178 172 171 174 171 170 167
267 279 280 282 274 276 276 275 272 265 268 265 265 261 255 249 246 245 239 232 224 209 200 198 196 192 194 188 189 187 182 181 176 175 185 183 187 180 177 178 178 185 184 178 176 172 174 173 168
277 276 278 264 266 265 277 272 262 270 269 259 257 252 253 246 244 242 239 230 227 220 209 196 200 197 195 199 195 192 189 182 181 178 187 187 189 185 181 180 183 184 189 178 177 172 174 172 171
261 266 270 273 263 262 250 274 272 268 266 252 260 257 254 249 241 241 239 236 226 223 217 201 200 201 202 201 198 199 190 192 181 182 188 189 190 183 184 186 182 183 185 182 178 176 173 172 174
205 267 263 274 264 268 256 269 275 282 284 268 263 255 250 242 240 236 232 232 230 226 223 215 201 204 204 205 202 203 197 187 192 182 186 187 189 185 189 191 186 176 184 186 177 180 177 173 175
250 250 249 253 263 251 271 270 264 261 267 261 259 261 256 250 241 237 229 230 232 230 223 223 210 208 206 202 205 199 199 190 186 190 189 184 186 188 191 190 185 180 184 186 183 180 181 176 173
248 262 269 274 295 295 275 275 271 275 277 272 261 249 247 251 251 236 233 236 232 237 229 218 218 207 204 200 194 195 195 189 189 193 190 186 186 185 185 184 177 185 189 188 183 180 178 177 169
240 256 259 274 276 271 274 275 274 270 274 273 265 252 245 244 242 239 234 237 235 232 229 227 218 213 206 197 198 201 202 200 201 193 193 190 188 187 185 180 179 187 187 186 183 181 176 182 175
230 237 258 272 278 270 281 279 278 265 253 256 256 250 248 242 234 226 217 213 219 239 232 226 220 216 207 201 199 199 198 203 198 197 192 193 189 186 189 187 184 185 189 185 184 184 181 176 178
248 233 253 262 265 258 225 279 285 290 277 271 240 240 226 216 218 166 190 188 187 181 236 247 224 220 210 196 197 194 194 193 199 199 197 196 194 189 190 189 186 185 187 188 188 184 183 176 188
249 249 255 249 247 251 245 265 274 233 224 348 85 109 124 146 154 158 145 136 118 111 110 230 241 221 213 195 197 200 202 204 198 202 200 196 197 195 194 193 191 187 190 192 188 187 193 192 191
250 247 252 262 236 239 243 229 267 241 257 219 131 121 132 130 122 109 97 105 105 93 85 118 184 228 220 203 201 201 208 207 204 197 200 197 195 198 196 195 194 194 192 192 195 195 195 196 197
240 243 241 227 222 234 245 226 240 261 40 262 143 133 124 117 110 99 63 53 57 67 69 84 132 191 226 210 211 209 208 211 213 209 204 202 198 199 200 198 196 197 198 197 195 198 199 202 198
217 210 220 242 208 239 227 217 211 6 111 92 110 112 116 108 99 92 79 32 23 41 45 22 2 183 197 232 220 212 216 216 217 213 203 209 205 197 198 201 201 200 204 202 197 203 204 205 207
228 222 234 247 261 274 253 228 192 92 107 106 90 91 87 71 71 60 43 39 20 13 25 14 344 324 278 235 236 246 221 220 217 218 214 208 206 201 198 197 200 200 198 200 198 203 205 203 209
254 336 218 204 232 239 217 232 206 138 123 96 74 51 39 40 30 24 26 14 12 5 357 353 344 341 323 296 271 248 245 233 222 219 219 216 211 207 192 197 199 201 201 195 194 202 207 212 208
17 155 354 344 288 248 243 151 348 113 101 90 70 42 24 16 8 1 4 4 359 350 354 355 350 334 322 311 304 288 282 249 236 223 217 216 210 201 196 195 195 199 201 200 200 200 199 200 207
214 175 160 260 146 254 59 138 154 119 66 34 17 12 1 349 346 347 356 1 347 342 339 344 345 342 323 315 308 306 298 284 258 233 225 214 209 205 200 193 196 198 198 197 198 202 204 202 203